DW3370 Weather Reports


time (UTC)temp
F
wind
direction
speed
knots
gust
knots
rain 1hr
in
rain 24hr
in
rain mn
in
humidity
%
barometer
mb
20260504060107 35 0 0.0 0.0 0.00 0.00 0.00 87 1014.9
20260504050119 36 0 0.0 0.0 0.00 0.00 0.00 86 1015.0
20260504044553 36 0 0.0 0.0 0.00 0.00 0.00 85 1015.2
20260504043100 37 0 0.0 0.0 0.00 0.00 0.00 83 1015.0
20260504041557 37 0 0.0 0.0 0.00 0.00 0.00 83 1015.0
20260504040105 37 0 0.0 0.0 0.00 0.00 0.00 83 1014.8
20260504034603 38 0 0.0 0.0 0.00 0.00 0.00 80 1014.9
20260504033058 39 0 0.0 0.0 0.00 0.00 0.00 80 1015.0
20260504031557 39 0 0.0 0.0 0.00 0.00 0.00 79 1014.7
20260504030053 40 0 0.0 0.0 0.00 0.00 0.00 77 1014.6
20260504024557 40 0 0.0 0.0 0.00 0.00 0.00 75 1014.6
20260504023055 41 0 0.0 0.0 0.00 0.00 0.00 73 1014.5
20260504021552 41 0 0.0 0.0 0.00 0.00 0.00 74 1014.3
20260504020104 43 0 0.0 0.0 0.00 0.00 0.00 69 1014.4
20260504014605 44 0 0.0 0.0 0.00 0.00 0.00 66 1014.3
20260504013052 45 0 0.0 0.0 0.00 0.00 0.00 62 1014.2
20260504011554 46 0 0.0 0.0 0.00 0.00 0.00 59 1014.1
20260504010056 48 0 0.0 0.0 0.00 0.00 0.00 53 1014.0
20260504004551 51 0 0.0 0.0 0.00 0.00 0.00 46 1014.0
20260504003054 52 0 0.0 0.0 0.00 0.00 0.00 44 1013.9
20260504001553 53 248 0.9 1.7 0.00 0.00 0.00 43 1013.6
20260504000058 54 254 0.0 3.5 0.00 0.00 0.00 42 1013.5
20260503234555 54 309 0.0 3.5 0.00 0.00 0.00 42 1013.4
20260503233052 55 279 0.0 3.5 0.00 0.00 0.00 41 1013.3
20260503231552 56 290 0.9 10.4 0.00 0.00 0.00 38 1013.0
20260503230113 57 188 1.7 7.8 0.00 0.00 0.00 38 1013.1
20260503224604 57 279 1.7 7.8 0.00 0.00 0.00 38 1013.2
20260503223055 58 278 1.7 7.8 0.00 0.00 0.00 36 1013.3
20260503221550 58 306 2.6 7.0 0.00 0.00 0.00 37 1013.2
20260503220054 58 313 2.6 11.3 0.00 0.00 0.00 36 1013.4
20260503214557 59 295 3.5 8.7 0.00 0.00 0.00 35 1013.4
20260503213101 59 252 3.5 8.7 0.00 0.00 0.00 35 1013.4
20260503211612 59 291 3.5 7.8 0.00 0.00 0.00 35 1013.3
20260503210055 59 329 0.9 7.0 0.00 0.00 0.00 41 1013.2
20260503204559 60 338 4.3 8.7 0.00 0.00 0.00 38 1013.3
20260503203059 57 250 3.5 12.2 0.00 0.00 0.00 36 1013.4
20260503201558 59 11 3.5 9.6 0.00 0.00 0.00 36 1013.2
20260503200108 59 269 2.6 13.0 0.00 0.00 0.00 35 1013.4
20260503194603 59 296 2.6 8.7 0.00 0.00 0.00 37 1013.7
20260503193105 57 309 3.5 11.3 0.00 0.00 0.00 32 1013.8
20260503191606 57 325 3.5 9.6 0.00 0.00 0.00 35 1014.0
20260503190054 58 239 1.7 10.4 0.00 0.00 0.00 38 1014.2
20260503184611 56 265 2.6 10.4 0.00 0.00 0.00 45 1014.2
20260503183053 57 316 3.5 12.2 0.00 0.00 0.00 41 1014.4
20260503181610 57 277 3.5 10.4 0.00 0.00 0.00 42 1014.5
20260503180116 56 263 3.5 9.6 0.00 0.00 0.00 43 1014.6
20260503173107 54 315 3.5 13.0 0.00 0.00 0.00 40 1014.6
20260503171555 55 273 3.5 7.0 0.00 0.00 0.00 44 1014.9
20260503150103 50 280 4.3 13.0 0.00 0.01 0.00 44 1015.8
20260503081553 36 0 0.0 0.0 0.00 0.01 0.00 78 1013.5
20260503080106 36 0 0.0 2.6 0.00 0.01 0.00 77 1013.4
20260503071600 37 288 0.9 4.3 0.00 0.02 0.00 77 1012.9